CZ-6A DEB, 54436

Orbit data source: Space-Track

CZ-6A DEB, 54436 is space debris in SSO originally from a launch on Fri, 11 Nov 2022 UTC launched from the Taiyaun Space Center, China (TSC). Debris objects in space refer to the collection of defunct objects orbiting the Earth. Examples of debris include non-operational satellites, rocket bodies, and fragments generated from explosions, collisions, or faulty payload assembly.

Loading next visibility...
Identifier
54436, 2022-151FL
Orbit
SSO
Country
Flag of CNCN / PRC
Related business
Manufacturer
SAST
Mission
Spacecraft
Bus & Motor
Unknown
Mass
Unknown
Launch date (UTC)
2022-11-11 (4 years ago)
Launch vehicle
Unknown
Launch site
Taiyaun Space Center, China (TSC)
Object type
Payload
Rocket body
Debris
Shape & HBR
Unknown shape, 0.2 m
Radar Cross Section
Medium (>0.1 m² and <1 m²)

Expand to show TLE details & history
Last TLE update: 9 hours ago

TLE from 9 hours ago
0 CZ-6A DEB
1 54436U 22151FL  26265.55180791  .00000169  00000-0  77516-4 0  9996
2 54436  98.6024 272.4720 0102872 138.8640 222.0355 14.30079678201284
Epoch: 2026-09-22T13:14Z
TLE epoch observation values (Epoch: 2026-09-22T13:14:36.203Z)
Latitude
-0.00008°
Longitude
72.40551°
Altitude
849.525 km
Speed
7.399 km/s
True Right ascension
18h 09m 53s
True Declination
0° 00' 00"
Sunlit
Object was in daylight at epoch
Visualization orbit readout
Latitude
Unknown
Longitude
Unknown
Altitude
Unknown
Speed
Unknown
Apparent Right ascension
Unknown
Apparent Declination
Unknown
Sunlit
N/A
Visualization observer readout
Local Sidereal Time
15:37:08
Azimuth
Unknown
Elevation
Unknown
Doppler factor
Unknown
Orbital elements
Apogee altitude
862.33 km
Perigee altitude
714.878 km
Semi-major axis
7,166.741 km
Eccentricity
0.01029
Inclination
98.6024°
RAAN
272.472°
Arg. of periapsis
138.864°
True anomaly
221.25366°
Mean anomaly
222.0355°
Eccentric anomaly
221.64384°
Mean motion
3.57734 °/min
Orbital period
100.63 mins
BSTAR
0.000077516
Loading maneuver chart data...
Computing Atmospheric mass density...
Loading historical data...
Loading historical data...
Loading historical data...
Loading historical data...
Loading historical data...
Loading historical data...
Loading historical data...

Documentation

Showing up to 5 results
|